Location: Azul
(36.7830°S, 59.8500°W)
Time: 08:17:00
(UTC-03:00)

XW-2B - Visible Passes

Search period start: 17 September 2024 00:00
Search period end: 27 September 2024 00:00
Orbit: 373 x 374 km, 97.5° (Epoch: 17 September)

Date Brightness Start Highest point End Pass type
(mag) Time Alt. Az. Time Alt. Az. Time Alt. Az.
20 Sep ? 20:47:04 10° S 20:47:33 14° S 20:47:33 14° S visible
21 Sep ? 21:18:40 10° SSW 21:18:58 11° SSW 21:18:58 11° SSW visible
22 Sep ? 20:17:16 10° SSE 20:17:58 16° SSE 20:17:58 16° SSE visible
23 Sep ? 20:47:06 10° S 20:48:23 22° S 20:48:23 22° S visible
24 Sep ? 21:17:08 10° SSW 21:18:18 16° SW 21:18:18 16° SW visible
25 Sep ? 20:14:32 10° SSE 20:15:52 22° SE 20:15:52 22° SE visible
26 Sep ? 20:42:48 10° S 20:44:46 36° S 20:44:46 36° S visible
